FENGYUN 1C DEB, 36986

Orbit data source: Space-Track

FENGYUN 1C DEB, 36986 is space debris in SSO originally from a launch on Mon, 10 May 1999 UTC launched from the Taiyaun Space Center, China (TSC). Fengyun 1C debris stems from the Chinese weather satellite Fengyun-1C, which was intentionally destroyed by a Chinese anti-satellite missile in 2007. This event dramatically increased the amount of space debris, with thousands of trackable fragments posing hazards to satellites and human spaceflight. The Fengyun 1C debris cloud has become a focal point in discussions about space sustainability and the need for international regulations to prevent the creation of new debris.

Loading next visibility...
Identifier
36986, 1999-025EBS
Orbit
SSO
Country
Flag of CNCN / PRC
Related business
Manufacturer
Unknown
Mission
Spacecraft
Bus & Motor
Unknown
Mass
Unknown
Launch date (UTC)
1999-05-10 (27 years ago)
Launch vehicle
Unknown
Launch site
Taiyaun Space Center, China (TSC)
Object type
Payload
Rocket body
Debris
Shape & HBR
Unknown shape, 0.1 m
Radar Cross Section
Small (<0.1 m²)

Expand to show TLE details & history
Last TLE update: 1 day ago

TLE from 1 day ago
0 FENGYUN 1C DEB
1 36986U 99025EBS 26106.65856047  .00001884  00000-0  95304-3 0  9998
2 36986  99.1355 180.7104 0085471 248.9410 110.2607 14.15543310835112
Epoch: 2026-04-16T15:48Z
TLE epoch observation values (Epoch: 2026-04-16T15:48:19.624Z)
Latitude
Longitude
98.82569°
Altitude
865.191 km
Speed
7.409 km/s
True Right ascension
12h 02m 50s
True Declination
0° 00' 00"
Sunlit
Object was in full shadow at epoch
Visualization orbit readout
Latitude
Unknown
Longitude
Unknown
Altitude
Unknown
Speed
Unknown
Apparent Right ascension
Unknown
Apparent Declination
Unknown
Sunlit
N/A
Visualization observer readout
Local Sidereal Time
22:18:05
Azimuth
Unknown
Elevation
Unknown
Doppler factor
Unknown
Orbital elements
Apogee altitude
899.324 km
Perigee altitude
775.976 km
Semi-major axis
7,215.787 km
Eccentricity
0.00855
Inclination
99.1355°
RAAN
180.7104°
Arg. of periapsis
248.941°
True anomaly
111.1761°
Mean anomaly
110.2607°
Eccentric anomaly
110.71874°
Mean motion
3.54093 °/min
Orbital period
101.67 mins
BSTAR
0.00095304
Loading maneuver chart data...
Computing Atmospheric mass density...

Documentation

Showing up to 5 results
|